Location: Unspecified
(41.5000°N, 0.0000°E)
Time: 20:56:02
(UTC+00:00)

Courier 1B Rocket - Pass Details

Date: 04 July 2019
Orbit: 920 x 1202 km, 28.2° (Epoch: 21 July)

Event Time Altitude Azimuth Distance (km) Brightness Sun altitude
Rises 02:49:39 0° 256° (WSW) 4,074 - -15.1°
Reaches altitude 10° 02:53:06 10° 244° (WSW) 3,084 - -14.7°
Exits shadow 02:55:57 19° 226° (SW) 2,437 6.4 -14.3°
Maximum altitude 02:59:00 25° 193° (SSW) 2,129 6.3 -14.0°
Drops below altitude 10° 03:04:40 10° 142° (SE) 2,943 7.4 -13.3°
Sets 03:07:52 0° 129° (SE) 3,850 8.2 -12.8°
